SCP
0 0 1 1 1 1 1 1 1 1 1 1 1 1 1 1 1 1 1 1 1 1 1 1 0 0 0 0 0 0 0 0 0 0 1 1 1 1 1 0 0 0 0
0 0 0 1 1 1 1 1 1 1 1 1 1 1 1 1 1 1 1 1 1 1 1 0 0 0 0 0 0 0 0 0 0 0 0 1 1 1 1 1 0 0 0
0 0 0 0 0 0 1 1 1 1 1 1 1 1 1 1 1 1 1 1 1 0 0 0 0 0 0 0 0 0 0 0 0 0 0 0 1 1 1 1 0 0 0
0 0 0 0 0 1 1 1 1 1 1 1 1 1 1 1 1 1 1 1 0 0 0 0 0 0 0 0 0 0 0 0 0 0 0 0 1 1 1 1 0 0 0
0 0 0 0 0 1 1 1 1 1 1 1 1 1 1 1 1 1 1 1 0 0 0 0 0 0 0 0 0 0 0 0 0 0 0 0 0 1 1 0 0 0 0
0 0 0 0 0 0 1 1 1 1 1 1 1 1 1 1 1 1 1 1 0 0 0 0 0 0 0 0 0 0 0 0 0 0 0 0 0 0 0 0 0 0 0
0 0 0 0 0 0 0 1 1 1 1 1 1 1 1 1 1 1 1 1 0 0 0 0 0 0 0 0 0 0 0 0 0 0 0 0 0 0 0 0 0 0 0
0 0 0 0 0 0 0 0 1 1 1 1 1 1 1 1 1 1 1 0 0 0 0 0 0 0 0 0 0 0 0 0 0 0 0 0 0 0 0 0 0 0 0
0 0 0 0 0 0 0 0 0 1 1 1 1 1 1 1 1 1 1 0 0 0 0 0 0 0 0 0 0 0 0 0 0 0 0 0 0 0 0 0 0 0 0
0 0 0 0 0 0 0 0 0 1 1 1 1 1 1 0 0 0 0 0 0 0 0 0 0 0 0 0 0 0 0 0 0 0 0 0 0 0 0 0 0 0 0
0 0 0 0 0 0 0 0 0 0 0 0 1 1 0 0 0 0 0 0 0 0 0 0 0 0 0 0 0 0 0 0 0 0 0 0 0 0 0 0 0 0 0
0 0 0 0 0 0 0 0 0 0 0 0 0 0 0 0 0 0 0 0 0 0 0 0 0 0 0 0 0 0 0 0 0 0 0 0 0 0 0 0 0 0 0
0 0 0 0 0 0 0 0 0 0 0 0 0 0 0 0 0 0 0 0 0 0 0 0 0 0 0 0 0 0 0 0 0 0 0 0 0 0 0 0 0 0 0
0 0 0 0 0 0 0 0 0 0 0 0 0 0 0 0 0 0 0 0 0 0 0 0 0 0 0 0 0 0 0 0 0 0 0 0 0 0 0 0 0 0 0
0 0 0 0 0 0 0 0 0 0 0 0 0 0 0 0 0 0 0 0 0 0 0 0 0 0 0 0 0 0 0 0 0 0 0 0 0 0 0 0 0 0 0
0 0 0 0 0 0 0 0 0 0 0 0 0 0 0 0 0 0 0 0 0 0 0 0 0 0 0 0 0 0 0 0 0 0 0 0 0 0 0 0 0 0 0
0 0 0 0 0 0 0 0 0 0 0 0 0 0 0 0 0 0 0 0 0 0 0 0 0 0 0 0 0 0 0 0 0 0 0 0 0 0 0 0 0 0 0
0 0 0 0 0 0 0 0 0 0 0 0 0 0 0 0 0 0 0 0 0 0 0 0 0 0 0 0 0 0 0 0 0 0 0 0 0 0 0 0 0 1 0
0 0 0 0 0 0 0 0 0 0 0 0 0 0 0 0 0 0 0 0 0 0 0 0 0 0 0 0 0 0 0 0 0 0 0 0 0 0 0 0 0 0 0
0 0 0 0 0 0 0 0 0 0 0 0 0 0 0 0 0 0 0 0 0 0 0 0 0 0 0 0 0 0 0 0 0 0 0 0 0 0 0 0 0 0 0
0 0 0 0 0 0 0 0 0 0 0 0 0 0 0 0 0 0 0 0 0 0 0 0 0 0 0 0 0 0 0 0 0 0 0 0 0 0 0 0 0 0 0
0 0 0 0 0 0 0 0 0 0 0 0 0 0 0 0 0 0 0 0 0 0 0 0 0 0 0 0 0 0 0 0 0 0 0 0 0 0 0 0 0 0 0
1 1 1 0 0 0 0 0 0 0 0 0 0 0 0 0 0 0 0 0 0 0 0 0 0 0 0 0 0 0 0 0 0 0 0 0 0 0 0 0 0 0 0
1 1 1 0 0 0 0 0 0 0 0 0 0 0 0 0 0 0 0 0 0 0 0 0 0 0 0 0 0 0 0 0 0 0 0 0 0 0 0 0 0 0 0
1 1 1 1 0 0 0 0 0 0 0 0 0 0 0 0 0 0 0 0 0 0 0 0 0 0 0 0 0 0 0 0 0 0 0 0 0 0 0 0 0 0 0
1 1 1 1 1 0 0 0 0 0 0 0 0 0 0 0 0 0 0 0 0 0 0 0 0 0 0 0 0 0 0 0 0 0 0 0 0 0 0 0 0 0 0
Wind_Speed
3 4 10 11 12 13 13 13 13 13 13 13 13 13 14 14 14 13 13 13 12 11 11 11 10 10 9 9 9 9 9 9 8 8 9 9 9 9 8 9 9 6 9
6 6 10 12 12 12 13 12 12 12 13 13 13 13 13 13 13 12 12 12 12 11 10 10 9 8 8 8 8 8 7 8 7 7 7 7 7 8 8 8 9 6 9
8 6 8 11 12 12 12 12 12 12 12 12 12 12 12 12 12 12 12 11 11 10 10 9 8 8 7 7 7 6 6 6 7 7 6 3 4 7 7 8 9 9 9
8 6 8 11 12 12 12 11 12 12 12 12 12 11 11 11 11 11 11 10 10 10 9 9 8 7 6 6 5 5 5 6 7 6 3 2 3 6 7 8 8 8 8
7 6 7 12 12 12 11 11 11 11 11 11 11 11 11 10 10 10 10 10 9 9 9 8 7 6 5 5 4 3 4 5 6 6 3 3 2 6 7 7 8 8 8
8 6 8 12 12 11 11 11 11 11 11 11 11 10 10 10 10 10 10 9 9 9 8 7 6 5 4 3 2 2 3 5 5 4 3 3 3 6 7 7 8 8 8
8 6 7 12 11 11 11 10 10 10 10 10 10 10 10 10 10 10 9 9 8 7 6 5 4 4 3 2 1 2 2 5 4 4 3 3 3 6 7 7 8 8 8
9 7 6 11 12 11 10 10 10 10 10 10 10 10 10 10 9 9 8 8 7 6 5 4 4 3 2 1 1 1 2 4 4 4 3 3 5 7 8 8 8 8 7
8 7 5 5 8 10 10 10 10 10 10 10 10 9 9 9 8 8 7 6 6 5 5 4 3 3 2 1 1 0 2 5 3 2 4 2 6 7 8 8 8 8 7
7 6 5 4 4 4 5 9 9 9 9 9 9 8 8 9 8 7 6 5 6 5 5 4 3 3 2 2 2 1 2 3 2 2 2 3 7 8 8 8 9 8 7
7 5 5 5 4 4 4 7 7 8 8 8 6 7 6 3 3 3 5 6 6 5 5 4 3 3 3 3 3 0 1 1 2 2 2 5 8 8 8 8 9 9 8
7 6 4 5 5 4 4 4 2 3 3 2 2 2 2 2 2 3 4 6 6 5 4 4 4 3 2 1 2 1 1 1 1 2 3 7 8 8 8 8 9 9 8
7 7 6 5 5 5 3 3 2 1 2 2 3 3 2 1 1 2 1 2 2 3 2 2 2 1 1 1 0 1 1 2 1 2 3 7 8 8 7 8 9 9 8
7 7 6 6 5 4 4 3 3 2 2 2 3 3 3 1 1 2 2 2 1 1 1 1 1 2 2 1 1 1 2 2 2 1 2 7 8 8 8 8 9 9 8
6 6 6 6 5 4 3 3 3 3 3 3 2 3 4 3 2 2 2 1 2 1 1 1 1 1 1 1 1 2 2 2 3 2 2 7 8 8 8 8 8 9 9
6 6 6 6 5 4 3 3 3 3 3 2 2 3 3 3 2 2 2 1 1 1 2 1 1 1 1 0 0 2 2 2 2 3 2 4 7 8 8 8 9 9 9
7 7 6 6 5 5 4 3 3 3 3 3 2 2 3 3 3 2 2 1 1 1 1 1 0 0 0 0 1 1 2 2 2 3 3 2 3 6 7 7 8 8 8
7 7 6 6 5 4 4 3 2 3 3 2 2 2 2 3 3 2 1 1 1 0 1 1 1 1 1 0 0 0 1 1 2 2 3 3 2 2 4 7 7 7 8
8 7 6 5 5 4 4 2 2 2 2 2 2 2 1 2 2 2 1 1 1 1 0 0 1 1 0 0 1 1 1 1 1 2 2 3 3 3 2 5 7 7 8
7 7 6 5 5 4 3 2 2 2 1 1 2 2 2 1 2 2 1 1 1 1 0 0 1 0 1 1 1 0 1 1 1 2 2 2 2 3 3 3 2 4 7
7 6 6 6 5 3 2 2 2 1 1 1 1 2 2 2 2 2 2 1 1 1 1 1 1 1 0 0 1 2 2 1 1 2 2 2 3 4 3 3 2 2 2
8 7 7 6 5 4 3 2 2 2 1 1 1 1 2 2 2 2 2 1 1 1 0 1 1 1 1 0 1 1 1 3 2 2 1 3 3 3 3 4 3 3 2
9 9 8 7 6 5 4 2 2 2 1 1 0 1 1 2 2 2 2 2 1 2 1 0 1 1 0 1 1 2 2 2 2 2 2 2 2 2 3 3 4 5 5
10 8 7 7 6 5 4 4 4 3 2 2 2 2 1 2 2 2 2 2 2 1 1 1 1 1 2 0 1 0 2 2 1 2 3 2 2 2 3 4 4 4 4
10 8 7 7 6 5 5 5 4 3 2 1 1 2 1 1 1 2 2 2 2 1 2 1 1 1 1 1 1 0 1 1 1 1 2 3 2 2 2 3 3 3 4
8 8 7 7 6 6 6 5 5 5 4 3 2 2 2 1 1 2 2 2 2 2 2 2 1 1 1 1 1 1 1 1 1 1 2 2 2 2 1 2 2 3 3
Wind_Direction
132 133 122 115 110 109 109 109 110 113 115 115 114 113 114 115 117 119 119 120 121 120 119 117 116 117 119 122 127 132 137 139 140 144 145 146 148 147 146 140 134 133 136
139 130 122 117 113 112 112 111 112 116 118 117 117 117 117 117 117 119 121 120 121 123 122 119 118 120 123 127 131 134 136 139 140 141 144 143 145 148 149 147 144 144 143
129 128 124 119 118 116 114 114 115 117 119 119 120 121 121 122 121 121 123 123 123 124 122 122 123 124 126 129 134 136 137 140 138 136 133 133 139 143 146 145 146 146 145
134 133 128 125 121 119 118 117 116 116 119 121 120 122 124 126 125 124 127 128 128 126 125 124 124 126 130 134 138 145 151 155 150 142 137 137 146 142 147 147 148 148 148
130 130 133 128 124 124 124 120 118 117 120 123 124 126 126 127 127 127 128 129 129 127 126 127 128 132 136 139 143 153 162 162 152 142 136 133 139 147 147 147 141 142 146
133 138 138 132 128 126 127 126 124 123 124 126 127 127 126 127 126 126 126 129 131 130 131 132 135 139 140 139 143 147 160 154 145 140 140 145 151 152 152 150 146 147 148
140 146 144 138 134 131 130 131 131 131 131 130 129 129 129 130 131 129 130 132 134 135 139 140 141 144 145 149 137 123 136 142 135 136 145 152 159 155 155 155 155 153 153
145 146 145 144 140 138 136 136 138 137 137 136 136 135 136 137 135 134 136 139 142 145 148 150 151 159 175 197 209 127 121 140 130 146 152 161 164 163 164 162 162 160 159
141 142 143 147 143 143 140 138 141 142 140 139 140 142 144 146 147 145 147 150 151 159 166 169 174 187 209 247 280 339 123 132 120 148 157 162 169 171 168 167 167 166 167
140 142 145 143 144 145 143 145 148 148 149 148 148 150 150 152 154 157 161 166 167 174 181 187 195 212 237 266 276 278 135 135 123 147 163 175 177 178 176 173 171 171 172
147 152 149 150 151 150 152 155 155 154 156 156 157 160 155 150 157 168 185 187 184 189 195 204 220 238 257 278 286 316 117 134 150 161 168 180 182 183 180 177 176 176 175
156 161 160 158 161 164 160 147 154 157 151 152 153 157 154 163 190 194 196 196 199 202 208 220 236 253 274 301 310 44 114 159 159 164 180 187 187 185 182 180 180 178 178
157 156 159 160 160 162 158 154 154 150 151 165 168 178 173 171 187 203 201 210 213 212 235 252 267 275 274 275 294 124 165 178 178 174 188 190 187 179 176 177 179 178 180
143 154 155 152 151 155 150 155 157 162 168 175 183 177 162 166 184 194 197 201 199 205 242 268 289 291 280 258 201 178 174 177 173 171 193 186 180 178 175 175 178 179 183
144 150 153 148 151 152 142 155 153 166 170 175 170 171 164 168 179 180 188 184 196 199 207 235 261 275 283 271 216 172 182 174 168 176 185 182 176 176 175 176 178 182 188
149 150 151 147 152 149 146 151 156 163 165 165 165 172 164 164 168 164 164 173 197 205 207 214 241 241 262 230 170 173 187 178 173 174 178 182 181 179 183 184 185 186 190
152 149 152 152 149 148 151 157 153 161 157 160 167 171 169 161 163 158 149 164 208 201 171 177 208 158 190 101 120 167 172 179 176 173 175 178 192 190 189 190 191 191 193
149 151 160 152 148 148 148 145 142 151 150 155 159 160 162 156 154 144 149 176 196 141 124 146 135 93 57 61 235 212 158 169 191 184 177 177 188 197 198 198 195 191 192
156 155 158 148 151 153 150 141 140 144 145 150 147 149 158 158 152 144 152 159 132 109 96 169 71 114 138 259 249 241 210 185 207 192 186 187 191 191 193 204 199 193 194
159 155 154 149 153 149 137 117 98 94 115 134 145 160 160 161 147 131 133 136 126 116 99 65 83 23 175 210 250 310 277 244 224 198 207 196 196 203 199 205 201 204 194
159 158 159 156 161 148 133 132 130 146 159 143 160 167 162 164 152 137 134 134 127 138 173 146 133 67 355 98 61 11 343 307 263 229 199 186 201 208 198 197 192 197 195
169 167 165 168 168 166 162 164 166 161 174 169 166 169 173 164 172 160 146 161 157 140 94 71 111 91 323 60 130 94 1 340 315 258 220 200 205 206 204 200 193 194 200
173 174 173 175 173 175 166 145 124 84 59 59 126 183 201 176 180 157 150 159 161 154 174 219 136 136 159 335 129 147 148 237 297 315 272 231 207 201 209 199 199 203 205
181 174 169 172 171 173 163 156 157 162 175 202 190 189 202 190 181 169 157 163 167 162 175 222 156 150 136 279 322 349 165 171 179 310 319 305 233 214 216 210 201 200 199
177 171 169 168 170 171 163 164 164 168 186 188 164 170 197 215 208 190 168 167 177 173 178 182 136 137 149 169 200 294 25 35 146 159 286 310 318 262 225 211 200 200 199
171 169 168 167 174 175 169 169 170 174 180 179 190 189 201 220 235 213 182 184 191 187 189 193 184 167 180 183 186 161 160 171 212 175 220 271 283 285 246 212 206 207 209